User: anonymous   Login
Location: Columbia
(38.9520°N, 92.3340°W)
Time: 16:31:06
(UTC-06:00)
Language:

CZ-4B R/B - Orbit

View from above orbital plane
View from above orbital plane
View from above satellite
View from above satellite

Ground track
Ground track

The orbit data is extracted from the following two-line orbital elements,

1 29093U 06015B   18052.86421450 +.00003043 +00000-0 +69673-4 0  9996
2 29093 097.5127 175.4261 0062142 137.9623 222.6416 15.41601688655872
Epoch (UTC): 21 February 2018 20:44:28
Eccentricity: 0.0062142
inclination: 97.5127°
perigee height: 399 km
apogee height: 484 km
right ascension of ascending node: 175.4261°
argument of perigee: 137.9623°
revolutions per day: 15.41601688
mean anomaly at epoch: 222.6416°
orbit number at epoch: 65587

The dashed part of the orbit path shows where the satellite is in the earth's shadow,  

DLR